[TLELIST] Archives

 

[list_settings.list_name] Current TLEs

June 11th 2022 PST

HST 1 20580U 90037B 22161.83603854 .00001391 00000-0 71405-4 0 9998 2 20580 28.4687 212.6513 0002376 328.4267 196.4973 15.10557324565213 ISS (ZARYA) 1 25544U 98067A 22162.34765491 .00005856 00000-0 11069-3 0 9996 2 25544 51.6456 5.5117 0004498 221.3186 315.1697 15.49951893344272 CXO 1 25867U 99040B 22165.40191664 .00000439 00000-0 00000+0 0 9992 2 25867 45.3885 235.2532 8814179 234.0813 359.9527 0.37807030 22949 ____________________________________________________________________ These 2-Line ...Continue Reading

[list_settings.list_name] Current TLEs

June 10th 2022 PST

HST 1 20580U 90037B 22161.21989080 .00001382 00000-0 70862-4 0 9994 2 20580 28.4687 216.7340 0002347 321.2736 86.3894 15.10555843565387 ISS (ZARYA) 1 25544U 98067A 22161.42485227 .00006518 00000-0 12233-3 0 9990 2 25544 51.6454 10.0823 0004409 216.2438 207.7914 15.49942882344131 CXO 1 25867U 99040B 22162.75903531 .00000497 00000-0 00000+0 0 9995 2 25867 45.4617 235.4297 8811838 234.0065 0.0664 0.37809389 22935 ____________________________________________________________________ These 2-Line ...Continue Reading

[list_settings.list_name] Current TLEs

June 9th 2022 PST

HST 1 20580U 90037B 22159.92075888 .00001332 00000-0 67903-4 0 9998 2 20580 28.4689 225.3422 0002312 306.2587 222.7137 15.10552549564920 ISS (ZARYA) 1 25544U 98067A 22160.08610676 .00005951 00000-0 11246-3 0 9992 2 25544 51.6458 16.7136 0004360 210.8080 298.4143 15.49922855343929 CXO 1 25867U 99040B 22160.11424283 .00000598 00000-0 00000-0 0 9998 2 25867 45.5552 235.6644 8812852 233.8796 359.9903 0.37814695 11764 ____________________________________________________________________ These 2-Line ...Continue Reading

[list_settings.list_name] Current TLEs

June 8th 2022 PST

HST 1 20580U 90037B 22158.59453747 .00001263 00000-0 63826-4 0 9997 2 20580 28.4692 234.1298 0002284 290.4494 212.2408 15.10548952564728 ISS (ZARYA) 1 25544U 98067A 22159.31250756 .00005396 00000-0 10278-3 0 9992 2 25544 51.6456 20.5456 0004405 208.1598 301.7480 15.49910331343804 CXO 1 25867U 99040B 22160.11424283 .00000598 00000-0 00000-0 0 9998 2 25867 45.5552 235.6644 8812852 233.8796 359.9903 0.37814695 11764 ____________________________________________________________________ These 2-Line ...Continue Reading

[list_settings.list_name] Current TLEs

June 7th 2022 PST

HST 1 20580U 90037B 22157.66644198 .00001307 00000-0 66404-4 0 9990 2 20580 28.4693 240.2792 0002275 279.3308 206.3872 15.10546996564585 ISS (ZARYA) 1 25544U 98067A 22158.15063898 .00006758 00000-0 12671-3 0 9994 2 25544 51.6452 26.3005 0004462 202.1414 300.6694 15.49901019343626 CXO 1 25867U 99040B 22160.11424283 .00000598 00000-0 00000-0 0 9998 2 25867 45.5552 235.6644 8812852 233.8796 359.9903 0.37814695 11764 ____________________________________________________________________ These 2-Line ...Continue Reading

[list_settings.list_name] Current TLEs

June 6th 2022 PST

HST 1 20580U 90037B 22156.59147078 .00001385 00000-0 71037-4 0 9990 2 20580 28.4695 247.4018 0002271 266.4566 122.0070 15.10544745564423 ISS (ZARYA) 1 25544U 98067A 22157.38128123 .00008182 00000-0 15171-3 0 9992 2 25544 51.6455 30.1105 0004522 201.2943 325.9721 15.49895998343503 CXO 1 25867U 99040B 22157.46771658 .00000633 00000-0 00000-0 0 9993 2 25867 45.6624 235.9275 8812189 233.7144 359.7556 0.37810929 11754 ____________________________________________________________________ These 2-Line ...Continue Reading

[list_settings.list_name] Current TLEs

June 5th 2022 PST

HST 1 20580U 90037B 22155.95345525 .00001389 00000-0 71272-4 0 9991 2 20580 28.4696 251.6291 0002278 259.0416 253.0365 15.10543114564592 ISS (ZARYA) 1 25544U 98067A 22156.44824074 .00008446 00000-0 15643-3 0 9993 2 25544 51.6453 34.7320 0004556 197.9465 159.8989 15.49881488343359 CXO 1 25867U 99040B 22157.46771658 .00000633 00000-0 00000-0 0 9993 2 25867 45.6624 235.9275 8812189 233.7144 359.7556 0.37810929 11754 ____________________________________________________________________ These 2-Line ...Continue Reading

[list_settings.list_name] Current TLEs

June 4th 2022 PST

HST 1 20580U 90037B 22154.76068456 .00001474 00000-0 76350-4 0 9991 2 20580 28.4697 259.5320 0002299 244.7024 248.2759 15.10540039564149 ISS (ZARYA) 1 25544U 98067A 22155.38108623 .00008231 00000-0 15277-3 0 9995 2 25544 51.6452 40.0176 0004674 192.8483 326.8332 15.49861598343192 CXO 1 25867U 99040B 22157.46771658 .00000633 00000-0 00000-0 0 9993 2 25867 45.6624 235.9275 8812189 233.7144 359.7556 0.37810929 11754 ____________________________________________________________________ These 2-Line ...Continue Reading

[list_settings.list_name] Current TLEs

June 3rd 2022 PST

HST 1 20580U 90037B 22153.69933601 .00001612 00000-0 84491-4 0 9994 2 20580 28.4698 266.5643 0002326 232.2904 237.6843 15.10537216563986 ISS (ZARYA) 1 25544U 98067A 22154.21747443 .00008433 00000-0 15641-3 0 9994 2 25544 51.6450 45.7820 0004512 188.2643 314.7964 15.49841988343015 CXO 1 25867U 99040B 22157.46759762 .00000633 00000-0 00000+0 0 9994 2 25867 45.6625 235.9275 8812185 233.7143 359.7393 0.37811348 22915 ____________________________________________________________________ These 2-Line ...Continue Reading

[list_settings.list_name] Current TLEs

June 2nd 2022 PST

HST 1 20580U 90037B 22152.71393980 .00001699 00000-0 89631-4 0 9992 2 20580 28.4703 273.0935 0002312 220.3141 280.5129 15.10535383563837 ISS (ZARYA) 1 25544U 98067A 22153.25079002 .00008867 00000-0 16412-3 0 9994 2 25544 51.6449 50.5684 0004739 184.6108 321.3773 15.49826638342861 CXO 1 25867U 99040B 22154.82321282 .00000571 00000-0 00000+0 0 9994 2 25867 45.7446 236.1405 8809679 233.5780 359.8145 0.37805761 22901 ____________________________________________________________________ These 2-Line ...Continue Reading
  • This mailing list is a public mailing list - anyone may join or leave, at any time.
  • This mailing list is announce-only.

International Space Station (ISS) / Hubble Space Telescope (HST) / Chandra X-Ray Observatory Orbital Data via EMAIL

Privacy Policy:

Private list